Wind_Speed
39 39 39 41 42 42 42 43 43 43 43 44 45 45 46 46 47 47 48 49 50 50 51 51 52 52 53 54 54 55 56 55 55 56 56 55 54 54
41 41 41 42 43 43 44 44 44 45 45 46 47 48 48 48 49 49 50 50 51 52 53 53 54 54 54 55 56 56 57 57 57 57 57 56 56 55
42 43 43 43 44 44 45 45 45 46 47 47 48 50 50 50 51 51 52 53 53 54 54 54 55 55 55 57 57 57 57 57 56 56 56 56 55 55
44 44 44 45 45 45 46 47 47 48 49 49 50 51 52 53 53 53 53 54 54 56 56 56 56 56 56 56 56 56 56 55 55 55 55 55 55 55
45 45 45 46 46 47 48 49 49 50 51 51 51 52 53 54 54 54 54 55 55 56 57 56 56 57 56 56 56 55 55 55 55 55 55 55 55 55
45 46 46 47 47 48 48 50 51 51 52 53 53 54 55 56 56 56 56 56 56 56 56 56 56 56 56 57 56 55 54 54 54 54 54 55 55 55
47 47 48 48 49 49 50 52 53 53 54 55 55 56 57 57 57 57 57 57 56 55 55 55 55 56 56 56 54 53 53 53 53 53 53 54 54 54
47 48 49 49 50 50 51 52 53 55 56 56 57 57 57 57 58 58 58 57 56 55 55 55 55 55 55 54 52 52 53 53 53 53 54 54 54 54
47 48 49 50 51 51 52 53 54 55 56 57 57 56 56 57 57 57 57 57 56 55 56 55 54 54 53 52 52 53 53 53 53 53 54 54 54 54
48 49 50 50 51 52 53 53 54 54 55 56 56 56 56 57 57 57 56 56 55 55 56 54 53 53 52 52 52 53 53 53 53 54 54 54 54 54
49 49 50 51 52 52 52 52 54 54 55 55 56 56 56 56 57 57 57 56 55 54 54 54 53 53 52 51 52 52 53 53 53 52 53 53 53 54
48 49 50 51 52 52 52 53 54 54 54 54 54 55 55 55 56 56 56 56 55 54 54 54 54 54 52 51 51 51 51 51 51 51 51 51 51 52
49 50 51 51 51 51 52 53 53 54 54 54 54 54 53 53 54 54 55 55 54 53 53 53 53 54 53 51 49 49 49 50 49 49 49 49 49 49
49 50 50 50 49 50 51 52 52 52 52 52 52 52 52 52 52 52 53 53 53 52 52 53 53 53 52 51 48 47 47 47 47 47 47 47 47 47
49 49 49 48 49 49 50 50 51 51 51 51 50 50 50 50 50 50 49 49 50 50 51 51 52 51 50 49 47 46 46 46 46 47 46 46 46 46
47 46 47 47 48 48 49 50 50 50 50 50 49 48 48 47 47 47 47 48 48 48 48 49 49 49 47 46 46 46 46 46 45 45 45 44 44 44
46 47 47 47 47 48 49 48 49 49 49 48 48 47 46 46 45 45 46 46 46 46 46 46 46 46 45 45 45 45 45 45 45 44 43 42 42 42
46 45 46 47 48 48 48 47 47 47 46 45 45 45 44 44 44 45 45 45 44 44 44 43 43 43 43 43 43 44 43 42 42 41 41 39 39 40
45 45 46 47 47 47 47 47 46 45 45 45 44 44 43 43 43 44 43 43 43 42 42 42 41 42 41 40 39 40 41 40 39 38 38 38 37 37
46 46 47 48 47 47 46 45 44 44 43 43 43 43 43 42 42 42 41 41 40 40 39 39 39 40 39 38 37 38 39 39 38 36 35 35 35 34
46 47 47 46 46 45 44 43 42 42 42 42 42 42 41 41 40 40 39 39 38 38 38 38 38 39 38 38 36 36 36 37 36 34 33 33 32 32
46 45 44 44 43 43 42 42 41 41 42 41 41 40 40 40 39 39 38 38 37 38 37 37 37 38 37 37 36 34 33 33 33 32 32 31 31 30
44 43 43 42 42 41 41 41 41 41 40 40 40 40 40 39 39 38 38 37 37 38 37 37 37 36 36 35 33 32 31 30 30 29 29 29 28 28
Wind_Direction
262 263 265 266 267 268 269 271 273 274 275 276 277 278 279 280 280 281 282 283 283 283 283 284 284 283 284 284 284 284 283 283 283 283 283 282 282 282
263 264 266 267 269 270 271 273 274 275 277 278 278 279 280 281 282 283 283 284 283 284 284 284 284 284 284 285 284 284 283 283 283 283 283 282 281 281
263 265 267 269 270 271 273 275 276 277 278 279 279 280 282 282 283 283 284 283 283 285 285 285 284 284 284 285 285 284 284 283 283 283 283 282 281 280
265 267 269 270 273 274 275 275 277 279 280 280 280 282 283 283 283 284 284 284 285 285 285 285 285 285 285 286 285 284 283 283 283 282 282 282 281 280
267 268 269 271 272 274 275 276 277 279 280 281 282 283 283 284 284 284 285 285 285 286 286 286 285 285 286 286 285 284 282 283 283 283 282 282 282 281
267 268 269 271 273 274 276 277 278 280 281 282 283 284 284 284 284 284 285 285 286 287 287 287 286 286 286 287 286 284 283 283 283 283 283 283 283 282
268 269 271 272 274 276 277 279 279 280 282 283 284 284 285 285 285 285 285 285 286 287 287 287 287 287 287 287 286 285 284 284 284 284 283 283 283 283
269 270 272 274 276 277 279 280 281 282 283 284 284 285 286 286 287 287 286 286 285 286 286 287 287 287 287 287 286 285 285 285 285 285 284 284 284 284
270 271 273 275 276 278 280 281 282 283 284 284 285 285 285 286 287 287 286 286 286 286 286 286 286 287 286 286 286 286 286 285 285 285 285 285 284 284
271 272 274 276 277 279 281 281 283 283 284 285 285 286 286 287 287 287 286 286 286 286 286 286 285 285 285 285 285 286 286 286 286 286 285 285 285 284
272 274 275 277 278 280 281 282 283 283 285 285 286 287 287 287 287 287 286 286 286 285 286 286 286 285 285 285 286 287 286 286 287 286 286 285 284 284
273 275 277 278 280 281 282 283 284 284 286 287 288 288 288 287 287 287 287 287 286 285 285 286 286 286 286 285 285 285 286 286 287 286 286 286 286 285
273 275 277 279 280 281 282 283 284 286 287 288 288 288 288 287 287 287 287 287 287 286 286 286 286 287 286 286 285 284 285 286 287 287 287 287 287 287
273 276 278 279 281 282 283 284 286 288 288 289 289 288 288 287 287 286 287 287 287 287 287 287 287 287 287 286 286 285 285 287 288 288 288 288 288 288
275 277 278 280 281 282 284 286 287 288 289 290 290 289 289 288 288 288 288 288 289 289 289 288 289 289 288 287 286 286 287 287 289 290 290 289 289 289
276 277 279 281 282 284 286 287 288 289 289 290 291 290 290 289 289 289 289 289 290 290 290 290 290 289 288 288 288 288 288 289 289 290 290 289 290 290
277 279 280 281 283 285 286 287 288 288 289 289 290 289 289 290 290 290 290 290 291 291 290 289 289 289 289 289 289 289 289 290 290 290 290 289 289 290
279 280 282 283 284 285 286 286 286 287 288 288 288 288 289 289 290 290 291 291 291 291 290 289 289 288 289 289 290 290 290 290 290 290 290 290 289 290
280 281 283 284 285 285 285 285 285 286 286 287 288 289 288 289 290 291 291 291 291 291 291 291 290 289 289 289 289 290 291 290 290 290 290 290 290 290
281 282 283 284 284 284 285 285 284 284 285 287 288 289 289 290 290 291 290 291 291 292 293 293 292 291 292 292 291 291 291 291 291 290 290 291 292 293
281 282 283 283 283 283 283 283 284 284 285 286 288 289 289 290 290 290 290 291 292 293 293 294 293 293 294 293 293 293 292 291 290 290 290 292 294 294
282 282 282 282 282 281 282 282 283 285 285 286 287 288 289 289 290 289 289 290 291 293 294 294 293 293 294 294 294 293 291 290 290 291 292 293 294 295
280 280 280 281 281 281 281 282 283 285 286 287 287 287 288 289 289 289 289 290 291 292 293 294 294 293 294 293 293 292 291 290 291 291 292 293 295 296
Height
5737 5738 5739 5739 5740 5740 5740 5741 5741 5741 5742 5740 5739 5737 5736 5734 5733 5731 5729 5727 5725 5723 5721 5719 5717 5715 5713 5711 5708 5706 5704 5702 5700 5698 5696 5694 5692 5691
5728 5729 5729 5730 5730 5730 5730 5729 5729 5729 5729 5729 5727 5725 5723 5721 5719 5718 5716 5714 5712 5709 5707 5705 5702 5700 5697 5695 5692 5690 5688 5686 5684 5682 5679 5677 5676 5674
5718 5719 5719 5719 5719 5719 5718 5717 5717 5716 5716 5716 5714 5712 5710 5708 5706 5704 5702 5700 5697 5695 5692 5689 5687 5684 5681 5678 5676 5673 5671 5669 5667 5665 5663 5661 5659 5658
5708 5708 5708 5708 5708 5707 5706 5706 5705 5704 5703 5703 5702 5699 5697 5694 5692 5690 5687 5685 5682 5680 5677 5673 5670 5667 5664 5661 5659 5657 5654 5652 5650 5649 5647 5644 5642 5640
5697 5697 5697 5697 5696 5696 5695 5694 5692 5691 5690 5689 5688 5686 5683 5680 5678 5675 5673 5670 5667 5664 5661 5657 5654 5651 5648 5645 5642 5640 5638 5636 5634 5632 5630 5628 5626 5624
5686 5686 5686 5685 5684 5684 5683 5681 5680 5678 5676 5674 5673 5671 5669 5665 5662 5660 5658 5655 5652 5648 5644 5641 5638 5635 5632 5629 5626 5624 5621 5619 5618 5616 5614 5612 5610 5608
5674 5674 5673 5673 5672 5671 5669 5668 5666 5664 5662 5660 5657 5655 5653 5650 5646 5643 5641 5639 5636 5633 5629 5626 5623 5620 5616 5613 5610 5607 5605 5604 5602 5600 5598 5595 5593 5591
5662 5661 5661 5660 5659 5657 5656 5654 5652 5649 5647 5644 5642 5639 5637 5633 5630 5627 5624 5622 5621 5619 5614 5612 5607 5604 5601 5598 5595 5592 5590 5588 5585 5583 5581 5579 5577 5575
5649 5648 5647 5646 5645 5644 5642 5640 5637 5633 5631 5629 5626 5624 5621 5618 5614 5611 5607 5604 5603 5601 5598 5597 5593 5590 5586 5583 5580 5577 5574 5572 5570 5567 5565 5562 5560 5558
5635 5634 5634 5633 5631 5629 5627 5625 5623 5620 5617 5614 5611 5608 5605 5601 5597 5594 5591 5589 5588 5585 5581 5581 5579 5576 5573 5569 5565 5562 5559 5556 5554 5551 5549 5546 5544 5542
5622 5621 5620 5618 5616 5614 5613 5611 5609 5606 5602 5599 5595 5592 5589 5585 5581 5578 5576 5574 5573 5571 5567 5564 5563 5561 5559 5555 5551 5547 5544 5541 5538 5535 5533 5530 5528 5525
5608 5607 5605 5603 5601 5599 5598 5596 5593 5591 5588 5584 5581 5577 5573 5569 5566 5562 5560 5558 5556 5556 5553 5549 5547 5544 5544 5542 5537 5533 5529 5526 5523 5520 5517 5515 5511 5509
5594 5593 5592 5589 5587 5585 5583 5580 5578 5575 5572 5569 5566 5562 5558 5555 5551 5548 5544 5542 5540 5538 5536 5533 5531 5528 5525 5526 5524 5519 5515 5512 5509 5506 5503 5500 5497 5494
5581 5579 5578 5575 5573 5571 5569 5566 5563 5561 5558 5554 5551 5548 5544 5541 5537 5534 5531 5528 5525 5522 5520 5517 5515 5513 5510 5509 5508 5506 5502 5498 5495 5492 5489 5486 5483 5480
5567 5566 5564 5562 5560 5557 5555 5552 5549 5547 5543 5540 5537 5533 5530 5526 5523 5520 5517 5514 5511 5508 5505 5502 5500 5498 5495 5494 5493 5491 5489 5486 5482 5479 5476 5473 5470 5467
5554 5552 5551 5549 5546 5544 5541 5539 5535 5533 5530 5527 5524 5520 5516 5513 5510 5507 5504 5501 5499 5496 5492 5488 5486 5484 5482 5480 5478 5477 5474 5472 5470 5466 5463 5460 5457 5453
5541 5540 5538 5536 5534 5531 5528 5525 5522 5520 5517 5514 5510 5507 5504 5501 5498 5495 5492 5489 5486 5484 5481 5477 5473 5471 5469 5467 5466 5463 5461 5458 5455 5452 5450 5448 5445 5441
5528 5527 5525 5523 5520 5518 5515 5513 5510 5507 5504 5501 5498 5495 5493 5490 5487 5484 5480 5477 5474 5472 5469 5465 5462 5460 5458 5456 5453 5450 5448 5445 5443 5440 5437 5435 5434 5431
5516 5514 5512 5510 5507 5505 5502 5499 5497 5494 5492 5489 5487 5484 5481 5478 5475 5472 5469 5466 5463 5460 5457 5453 5450 5448 5447 5446 5443 5438 5435 5433 5431 5429 5426 5424 5422 5420
5503 5501 5499 5496 5494 5491 5489 5487 5484 5482 5480 5478 5475 5472 5470 5467 5464 5461 5458 5455 5453 5450 5446 5443 5440 5437 5435 5434 5432 5429 5424 5422 5420 5418 5416 5413 5411 5409
5490 5488 5485 5483 5481 5479 5477 5474 5472 5471 5468 5466 5464 5461 5458 5456 5453 5450 5448 5445 5442 5440 5437 5434 5430 5427 5425 5423 5421 5419 5415 5411 5409 5408 5406 5404 5402 5400
5477 5474 5472 5470 5468 5466 5465 5463 5461 5459 5457 5455 5452 5450 5447 5445 5442 5440 5437 5435 5432 5429 5427 5424 5420 5418 5415 5413 5410 5408 5406 5403 5401 5399 5397 5395 5393 5391
5463 5461 5459 5458 5456 5454 5453 5451 5450 5448 5446 5443 5441 5439 5437 5434 5432 5429 5427 5425 5422 5420 5417 5414 5411 5408 5405 5403 5401 5399 5397 5395 5393 5391 5389 5386 5384 5382